Flag for Canada Weather past 2 weeks in Fort Simpson, Northwest Territories, Canada

Now
14 °F

Sunny.


Feels Like: 0 °F
Forecast: -5 / 11 °F
Wind: 12 mph from Northwest

Location: Fort Simpson

Current Time: Mar 2, 2015 at 4:21:15 PM

Latest Report: Mar 2, 2015 at 4:00 PM


Visibility: 15 mi

Pressure: 30.61 "Hg

Humidity: 41%

Dew point: -6 °F

Location of Fort SimpsonLocation

Historic Weather in Fort Simpson — Graph

°F

Fort Simpson temperature yesterday

Maximum temperature yesterday: 28 °F (at 3:00 PM)
Minimum temperature yesterday: 7 °F (at 11:00 PM)
Average temperature yesterday: 15 °F

Past Weeks' High & Low Weather Summary

 TemperatureHumidityPressure
High30 °F (Feb 28, 3:00 PM)92% (Feb 22, 4:00 AM)30.85 "Hg (Feb 22, 4:00 AM)
Low-20 °F (Feb 16, 8:00 AM)44% (Mar 1, 10:00 PM)29.83 "Hg (Mar 1, 8:00 AM)
Average8 °F77%30.34 "Hg
* Reported Feb 15 3:00 PM — Mar 2 3:00 PM, Fort Simpson, Weather by CustomWeather, © 2015

Note: Actual official high and low records may vary slightly from our data, if they occured in-between our weather recording intervals... More about our weather records

Advertising

Fort Simpson weather history for previous 24 hours

 ConditionsComfort  
Time TempWeatherWind HumidityBarometerVisibility
3:00 PM
Mon, Mar 2
12 °FSunny.10 mph44%30.63 "Hg15 mi
2:00 PM10 °FSunny.10 mph44%30.64 "Hg15 mi
1:00 PM10 °FSunny.9 mph44%30.66 "Hg15 mi
12:00 PM7 °FSunny.9 mph47%30.69 "Hg15 mi
11:00 AM5 °FSunny.15 mph51%30.70 "Hg15 mi
10:00 AM1 °FPassing clouds.8 mph60%30.71 "Hg15 mi
9:00 AM-2 °FPassing clouds.7 mph65%30.71 "Hg15 mi
8:00 AM-4 °FPassing clouds.6 mph65%30.70 "Hg15 mi
7:00 AM-2 °FPassing clouds.6 mph65%30.69 "Hg15 mi
6:00 AM0 °FPassing clouds.7 mph60%30.67 "Hg15 mi
5:00 AM1 °FPassing clouds.16 mph60%30.64 "Hg15 mi
4:00 AM1 °FPassing clouds.9 mph60%30.62 "Hg15 mi
3:00 AM1 °FPassing clouds.12 mph60%30.62 "Hg15 mi
2:00 AM3 °FPassing clouds.13 mph55%30.59 "Hg15 mi
1:00 AM5 °FPassing clouds.5 mph55%30.58 "Hg15 mi
12:00 AM7 °FPassing clouds.13 mph51%30.55 "Hg15 mi
11:00 PM
Sun, Mar 1
7 °FLow level haze.18 mph56%30.51 "Hg15 mi
10:00 PM10 °FPassing clouds.26 mph44%30.47 "Hg15 mi
9:00 PM12 °FPassing clouds.23 mph52%30.42 "Hg15 mi
8:00 PM16 °FPassing clouds.21 mph45%30.36 "Hg15 mi
7:00 PM18 °FPartly cloudy.26 mph53%30.31 "Hg15 mi
6:00 PM21 °FBroken clouds.24 mph45%30.25 "Hg15 mi
5:00 PM25 °FPartly sunny.22 mph46%30.20 "Hg15 mi
4:00 PM27 °FCloudy.18 mph50%30.14 "Hg15 mi
Weather by CustomWeather, © 2015

See weather overviewHow to use our weather pages